Location: Buckland
(65.9785°N, 161.1281°W)
Time: 14:54:34
(UTC+00:00)

Transit 4A - Pass Details

Date: 08 October 2022
Orbit: 871 x 972 km, 66.8° (Epoch: 29 November)

Event Time Altitude Azimuth Distance (km) Brightness Sun altitude
Exits shadow 11:22:17 81° 50° (NE) 912 7.8 -29.4°
Drops below altitude 10° 11:27:54 10° 80° (E) 2,546 10.5 -29.2°
Sets 11:30:22 0° 81° (E) 3,478 11.2 -29.1°
